Time,TemperatureF,DewpointF,PressureIn,WindDirection,WindDirectionDegrees,WindSpeedMPH,WindSpeedGustMPH,Humidity,HourlyPrecipIn,Conditions,Clouds,dailyrainin,SoftwareType,DateUTC
2013-03-01 00:00:00,63.4,-99.9,29.92,South,185,3.0,4.0,255,0.00,,,0.00,Wunderground v.1.13,2013-03-01 05:00:00,
2013-03-01 00:06:00,63.5,-99.9,29.91,South,185,3.0,3.0,255,0.00,,,0.00,Wunderground v.1.13,2013-03-01 05:06:00,
2013-03-01 00:26:00,63.5,-99.9,29.92,South,185,2.0,2.0,255,0.00,,,0.00,Wunderground v.1.13,2013-03-01 05:26:00,
2013-03-01 00:36:00,63.5,-99.9,29.91,South,185,2.0,4.0,255,0.00,,,0.00,Wunderground v.1.13,2013-03-01 05:36:00,
2013-03-01 00:50:00,63.5,-99.9,29.91,South,185,2.0,3.0,255,0.00,,,0.00,Wunderground v.1.13,2013-03-01 05:50:00,
2013-03-01 00:55:00,63.5,-99.9,29.91,South,185,1.0,1.0,255,0.00,,,0.00,Wunderground v.1.13,2013-03-01 05:55:00,
2013-03-01 01:10:00,63.4,-99.9,29.90,South,185,0.0,0.0,255,0.00,,,0.00,Wunderground v.1.13,2013-03-01 06:10:00,
2013-03-01 01:16:00,63.4,-99.9,29.90,South,185,0.0,0.0,255,0.00,,,0.00,Wunderground v.1.13,2013-03-01 06:16:00,
2013-03-01 01:26:00,63.4,-99.9,29.90,South,185,0.0,0.0,255,0.00,,,0.00,Wunderground v.1.13,2013-03-01 06:26:00,
2013-03-01 01:31:00,63.4,-99.9,29.90,South,185,0.0,0.0,255,0.00,,,0.00,Wunderground v.1.13,2013-03-01 06:31:00,
2013-03-01 01:40:00,63.4,-99.9,29.89,South,185,0.0,2.0,255,0.00,,,0.00,Wunderground v.1.13,2013-03-01 06:40:00,
2013-03-01 01:46:00,63.2,-99.9,29.89,South,185,0.0,0.0,255,0.00,,,0.00,Wunderground v.1.13,2013-03-01 06:46:00,
2013-03-01 01:51:00,63.2,-99.9,29.89,South,185,0.0,0.0,255,0.00,,,0.00,Wunderground v.1.13,2013-03-01 06:51:00,
2013-03-01 01:56:00,63.2,-99.9,29.89,South,180,1.0,3.0,-32768,0.00,,,0.00,Wunderground v.1.13,2013-03-01 06:56:00,
2013-03-01 02:01:00,63.2,-99.9,29.89,N/A,-737280,0.0,0.0,-32768,0.00,,,0.00,Wunderground v.1.13,2013-03-01 07:01:00,
2013-03-01 02:21:00,63.2,-99.9,29.89,South,185,1.0,1.0,255,0.00,,,0.00,Wunderground v.1.13,2013-03-01 07:21:00,
2013-03-01 02:36:00,63.2,-99.9,29.89,South,185,1.0,1.0,255,0.00,,,0.00,Wunderground v.1.13,2013-03-01 07:36:00,
2013-03-01 02:45:00,63.2,-99.9,29.89,South,185,1.0,1.0,255,0.00,,,0.00,Wunderground v.1.13,2013-03-01 07:45:00,
2013-03-01 02:56:00,63.2,-99.9,29.89,South,185,0.0,0.0,255,0.00,,,0.00,Wunderground v.1.13,2013-03-01 07:56:00,
2013-03-01 03:06:00,63.2,-99.9,29.88,South,185,1.0,1.0,255,0.00,,,0.00,Wunderground v.1.13,2013-03-01 08:06:00,
2013-03-01 03:26:00,63.2,-99.9,29.89,South,185,2.0,3.0,255,0.00,,,0.00,Wunderground v.1.13,2013-03-01 08:26:00,
2013-03-01 03:36:00,63.2,-99.9,29.89,South,188,2.0,3.0,255,0.00,,,0.00,Wunderground v.1.13,2013-03-01 08:36:00,
2013-03-01 03:46:00,63.1,-99.9,29.89,SSW,201,2.0,2.0,255,0.00,,,0.00,Wunderground v.1.13,2013-03-01 08:46:00,
2013-03-01 04:01:00,63.1,-99.9,29.89,SSW,202,1.0,2.0,255,0.00,,,0.00,Wunderground v.1.13,2013-03-01 09:01:00,
2013-03-01 04:31:00,62.9,-99.9,29.89,SSW,204,2.0,2.0,255,0.00,,,0.00,Wunderground v.1.13,2013-03-01 09:31:00,
2013-03-01 04:36:00,62.7,-99.9,29.90,SSW,204,2.0,2.0,255,0.00,,,0.00,Wunderground v.1.13,2013-03-01 09:36:00,
2013-03-01 04:46:00,62.6,-99.9,29.90,SSW,204,2.0,3.0,255,0.00,,,0.00,Wunderground v.1.13,2013-03-01 09:46:00,
2013-03-01 04:51:00,62.6,-99.9,29.90,SSW,207,2.0,2.0,255,0.00,,,0.00,Wunderground v.1.13,2013-03-01 09:51:00,
2013-03-01 05:01:00,62.4,-99.9,29.90,SSW,207,2.0,2.0,255,0.00,,,0.00,Wunderground v.1.13,2013-03-01 10:01:00,
2013-03-01 05:21:00,62.1,-99.9,29.89,SSW,211,1.0,1.0,255,0.00,,,0.00,Wunderground v.1.13,2013-03-01 10:21:00,
2013-03-01 05:36:00,62.1,-99.9,29.91,SSW,211,1.0,1.0,255,0.00,,,0.00,Wunderground v.1.13,2013-03-01 10:36:00,
2013-03-01 05:46:00,62.1,-99.9,29.91,SSW,211,1.0,1.0,255,0.00,,,0.00,Wunderground v.1.13,2013-03-01 10:46:00,
2013-03-01 05:51:00,62.0,-99.9,29.91,SSW,211,2.0,3.0,255,0.00,,,0.00,Wunderground v.1.13,2013-03-01 10:51:00,
2013-03-01 05:56:00,62.0,-99.9,29.91,SSW,212,2.0,4.0,255,0.00,,,0.00,Wunderground v.1.13,2013-03-01 10:56:00,
2013-03-01 06:01:00,61.8,-99.9,29.91,WNW,293,3.0,5.0,-32768,0.00,,,0.00,Wunderground v.1.13,2013-03-01 11:01:00,
2013-03-01 06:31:00,61.3,-99.9,29.91,WNW,302,3.0,3.0,255,0.00,,,0.00,Wunderground v.1.13,2013-03-01 11:31:00,
2013-03-01 06:46:00,61.3,-99.9,29.91,NW,306,3.0,4.0,255,0.00,,,0.00,Wunderground v.1.13,2013-03-01 11:46:00,
2013-03-01 06:55:00,61.2,-99.9,29.91,NW,306,3.0,3.0,255,0.00,,,0.00,Wunderground v.1.13,2013-03-01 11:55:00,
2013-03-01 07:01:00,61.2,-99.9,29.91,NW,312,3.0,3.0,255,0.00,,,0.00,Wunderground v.1.13,2013-03-01 12:01:00,
2013-03-01 07:05:00,61.2,-99.9,29.92,NW,312,3.0,3.0,255,0.00,,,0.00,Wunderground v.1.13,2013-03-01 12:05:00,
2013-03-01 07:21:00,61.0,-99.9,29.93,NNW,342,4.0,4.0,255,0.00,,,0.00,Wunderground v.1.13,2013-03-01 12:21:00,
2013-03-01 07:46:00,60.7,-99.9,29.93,NW,312,4.0,5.0,255,0.00,,,0.00,Wunderground v.1.13,2013-03-01 12:46:00,
2013-03-01 07:56:00,60.9,-99.9,29.94,NW,325,5.0,5.0,255,0.00,,,0.00,Wunderground v.1.13,2013-03-01 12:56:00,
2013-03-01 08:16:00,60.4,-99.9,29.94,NNW,330,5.0,5.0,255,0.00,,,0.00,Wunderground v.1.13,2013-03-01 13:16:00,
2013-03-01 08:26:00,60.4,-99.9,29.94,NW,315,6.0,8.0,255,0.00,,,0.00,Wunderground v.1.13,2013-03-01 13:26:00,
2013-03-01 08:36:00,60.5,-99.9,29.95,NW,309,4.0,5.0,255,0.00,,,0.00,Wunderground v.1.13,2013-03-01 13:36:00,
2013-03-01 08:41:00,60.7,-99.9,29.95,NW,317,4.0,6.0,255,0.00,,,0.00,Wunderground v.1.13,2013-03-01 13:41:00,
2013-03-01 08:46:00,60.9,-99.9,29.95,NW,319,5.0,6.0,255,0.00,,,0.00,Wunderground v.1.13,2013-03-01 13:46:00,
2013-03-01 09:01:00,61.6,-99.9,29.94,NW,323,4.0,5.0,255,0.00,,,0.00,Wunderground v.1.13,2013-03-01 14:01:00,
2013-03-01 09:41:00,62.4,-99.9,29.95,NNW,347,6.0,6.0,255,0.00,,,0.00,Wunderground v.1.13,2013-03-01 14:41:00,
2013-03-01 09:56:00,62.1,-99.9,29.95,NW,312,5.0,5.0,255,0.00,,,0.00,Wunderground v.1.13,2013-03-01 14:56:00,
2013-03-01 10:05:00,62.3,-99.9,29.95,NW,323,5.0,5.0,255,0.00,,,0.00,Wunderground v.1.13,2013-03-01 15:05:00,
2013-03-01 10:25:00,61.8,-99.9,29.97,NW,316,7.0,9.0,255,0.00,,,0.00,Wunderground v.1.13,2013-03-01 15:25:00,
2013-03-01 10:31:00,62.3,-99.9,29.97,NNW,331,7.0,7.0,255,0.00,,,0.00,Wunderground v.1.13,2013-03-01 15:31:00,
2013-03-01 10:41:00,62.6,-99.9,29.95,NW,311,6.0,6.0,255,0.00,,,0.00,Wunderground v.1.13,2013-03-01 15:41:00,
2013-03-01 10:55:00,63.1,-99.9,29.95,NW,325,6.0,6.0,255,0.00,,,0.00,Wunderground v.1.13,2013-03-01 15:55:00,
2013-03-01 11:05:00,63.2,-99.9,29.96,NW,320,5.0,5.0,255,0.00,,,0.00,Wunderground v.1.13,2013-03-01 16:05:00,
2013-03-01 11:26:00,63.5,-99.9,29.95,NNW,333,5.0,5.0,255,0.00,,,0.00,Wunderground v.1.13,2013-03-01 16:26:00,
2013-03-01 11:46:00,62.7,-99.9,29.95,NW,306,4.0,4.0,255,0.00,,,0.00,Wunderground v.1.13,2013-03-01 16:46:00,
2013-03-01 11:51:00,63.1,-99.9,29.95,WNW,293,4.0,8.0,-32768,0.00,,,0.00,Wunderground v.1.13,2013-03-01 16:51:00,
2013-03-01 11:56:00,63.1,-99.9,29.95,WNW,293,4.0,7.0,-32768,0.00,,,0.00,Wunderground v.1.13,2013-03-01 16:56:00,
2013-03-01 12:01:00,63.1,-99.9,29.94,West,270,3.0,5.0,-32768,0.00,,,0.00,Wunderground v.1.13,2013-03-01 17:01:00,
2013-03-01 12:36:00,64.0,-99.9,29.93,NW,305,3.0,4.0,255,0.00,,,0.00,Wunderground v.1.13,2013-03-01 17:36:00,
2013-03-01 12:45:00,63.9,-99.9,29.93,West,281,5.0,6.0,255,0.00,,,0.00,Wunderground v.1.13,2013-03-01 17:45:00,
2013-03-01 12:51:00,64.0,-99.9,29.93,WNW,298,5.0,5.0,255,0.00,,,0.00,Wunderground v.1.13,2013-03-01 17:51:00,
2013-03-01 13:00:00,64.5,-99.9,29.92,WNW,293,5.0,8.0,-32768,0.00,,,0.00,Wunderground v.1.13,2013-03-01 18:00:00,
2013-03-01 13:16:00,64.8,-99.9,29.92,West,271,5.0,6.0,255,0.00,,,0.00,Wunderground v.1.13,2013-03-01 18:16:00,
2013-03-01 13:35:00,65.2,-99.9,29.91,NW,320,5.0,7.0,255,0.00,,,0.00,Wunderground v.1.13,2013-03-01 18:35:00,
2013-03-01 13:41:00,65.3,-99.9,29.91,West,279,5.0,7.0,255,0.00,,,0.00,Wunderground v.1.13,2013-03-01 18:41:00,
2013-03-01 13:56:00,64.8,-99.9,29.91,WNW,287,5.0,5.0,255,0.00,,,0.00,Wunderground v.1.13,2013-03-01 18:56:00,
2013-03-01 14:06:00,64.3,-99.9,29.90,NW,307,5.0,9.0,255,0.00,,,0.00,Wunderground v.1.13,2013-03-01 19:06:00,
2013-03-01 14:26:00,64.7,-99.9,29.89,WNW,286,4.0,5.0,255,0.00,,,0.00,Wunderground v.1.13,2013-03-01 19:26:00,
2013-03-01 14:41:00,64.2,-99.9,29.89,SW,217,4.0,5.0,255,0.00,,,0.00,Wunderground v.1.13,2013-03-01 19:41:00,
2013-03-01 14:55:00,64.7,-99.9,29.89,NW,309,4.0,4.0,255,0.00,,,0.00,Wunderground v.1.13,2013-03-01 19:55:00,
2013-03-01 15:01:00,64.5,-99.9,29.89,WNW,286,5.0,6.0,255,0.00,,,0.00,Wunderground v.1.13,2013-03-01 20:01:00,
2013-03-01 15:31:00,63.4,-99.9,29.88,WNW,292,6.0,6.0,255,0.00,,,0.00,Wunderground v.1.13,2013-03-01 20:31:00,
2013-03-01 15:45:00,63.2,-99.9,29.88,NW,309,5.0,5.0,255,0.00,,,0.00,Wunderground v.1.13,2013-03-01 20:45:00,
2013-03-01 15:51:00,63.2,-99.9,29.89,West,277,6.0,6.0,255,0.00,,,0.00,Wunderground v.1.13,2013-03-01 20:51:00,
2013-03-01 15:56:00,63.1,-99.9,29.89,WNW,288,6.0,6.0,255,0.00,,,0.00,Wunderground v.1.13,2013-03-01 20:56:00,
2013-03-01 16:06:00,63.1,-99.9,29.89,WNW,302,4.0,5.0,255,0.00,,,0.00,Wunderground v.1.13,2013-03-01 21:06:00,
2013-03-01 16:25:00,62.6,-99.9,29.89,WNW,301,5.0,6.0,255,0.00,,,0.00,Wunderground v.1.13,2013-03-01 21:25:00,
2013-03-01 16:56:00,62.1,-99.9,29.90,WNW,287,4.0,4.0,255,0.00,,,0.00,Wunderground v.1.13,2013-03-01 21:56:00,
2013-03-01 17:06:00,62.0,-99.9,29.89,WNW,292,4.0,10.0,255,0.00,,,0.00,Wunderground v.1.13,2013-03-01 22:06:00,
2013-03-01 17:35:00,61.5,-99.9,29.91,WNW,291,4.0,4.0,255,0.00,,,0.00,Wunderground v.1.13,2013-03-01 22:35:00,
2013-03-01 17:41:00,61.5,-99.9,29.91,WNW,290,3.0,3.0,255,0.00,,,0.00,Wunderground v.1.13,2013-03-01 22:41:00,
2013-03-01 17:56:00,61.5,-99.9,29.91,NW,307,4.0,7.0,255,0.00,,,0.00,Wunderground v.1.13,2013-03-01 22:56:00,
2013-03-01 18:06:00,61.3,-99.9,29.92,NW,315,3.0,6.0,255,0.00,,,0.00,Wunderground v.1.13,2013-03-01 23:06:00,
2013-03-01 18:21:00,61.3,-99.9,29.92,NW,307,4.0,5.0,255,0.00,,,0.00,Wunderground v.1.13,2013-03-01 23:21:00,
2013-03-01 18:26:00,61.3,-99.9,29.92,NW,309,4.0,4.0,255,0.00,,,0.00,Wunderground v.1.13,2013-03-01 23:26:00,
2013-03-01 18:36:00,61.3,-99.9,29.93,WNW,298,3.0,3.0,255,0.00,,,0.00,Wunderground v.1.13,2013-03-01 23:36:00,
2013-03-01 18:45:00,61.3,-99.9,29.93,WNW,292,3.0,3.0,255,0.00,,,0.00,Wunderground v.1.13,2013-03-01 23:45:00,
2013-03-01 18:56:00,61.2,-99.9,29.93,WNW,295,3.0,6.0,255,0.00,,,0.00,Wunderground v.1.13,2013-03-01 23:56:00,
2013-03-01 19:06:00,61.2,-99.9,29.93,WNW,303,3.0,7.0,255,0.00,,,0.00,Wunderground v.1.13,2013-03-02 00:06:00,
2013-03-01 19:26:00,61.0,-99.9,29.93,WNW,302,3.0,5.0,255,0.00,,,0.00,Wunderground v.1.13,2013-03-02 00:26:00,
2013-03-01 19:36:00,60.9,-99.9,29.94,WNW,296,3.0,3.0,255,0.00,,,0.00,Wunderground v.1.13,2013-03-02 00:36:00,
2013-03-01 19:41:00,60.7,-99.9,29.94,WNW,292,4.0,5.0,255,0.00,,,0.00,Wunderground v.1.13,2013-03-02 00:41:00,
2013-03-01 19:56:00,60.7,-99.9,29.95,WNW,296,3.0,3.0,255,0.00,,,0.00,Wunderground v.1.13,2013-03-02 00:56:00,
2013-03-01 20:01:00,60.7,-99.9,29.95,WNW,296,3.0,3.0,255,0.00,,,0.00,Wunderground v.1.13,2013-03-02 01:01:00,
2013-03-01 20:06:00,60.5,-99.9,29.94,WNW,292,3.0,6.0,255,0.00,,,0.00,Wunderground v.1.13,2013-03-02 01:06:00,
2013-03-01 20:25:00,60.4,-99.9,29.95,West,280,4.0,5.0,255,0.00,,,0.00,Wunderground v.1.13,2013-03-02 01:25:00,
2013-03-01 20:31:00,60.4,-99.9,29.95,WNW,287,4.0,4.0,255,0.00,,,0.00,Wunderground v.1.13,2013-03-02 01:31:00,
2013-03-01 20:40:00,60.4,-99.9,29.95,West,276,3.0,4.0,255,0.00,,,0.00,Wunderground v.1.13,2013-03-02 01:40:00,
2013-03-01 20:46:00,60.2,-99.9,29.95,WNW,290,3.0,3.0,255,0.00,,,0.00,Wunderground v.1.13,2013-03-02 01:46:00,
2013-03-01 20:56:00,60.1,-99.9,29.95,WNW,293,3.0,3.0,255,0.00,,,0.00,Wunderground v.1.13,2013-03-02 01:56:00,
2013-03-01 21:05:00,60.1,-99.9,29.95,WNW,294,3.0,8.0,255,0.00,,,0.00,Wunderground v.1.13,2013-03-02 02:05:00,
2013-03-01 21:26:00,59.8,-99.9,29.95,West,269,4.0,8.0,255,0.00,,,0.00,Wunderground v.1.13,2013-03-02 02:26:00,
2013-03-01 21:36:00,59.6,-99.9,29.96,WNW,294,5.0,5.0,255,0.00,,,0.00,Wunderground v.1.13,2013-03-02 02:36:00,
2013-03-01 21:51:00,59.5,-99.9,29.97,NW,314,4.0,7.0,255,0.00,,,0.00,Wunderground v.1.13,2013-03-02 02:51:00,
2013-03-01 22:00:00,59.5,-99.9,29.97,NW,309,4.0,4.0,255,0.00,,,0.00,Wunderground v.1.13,2013-03-02 03:00:00,
2013-03-01 22:30:00,59.2,-99.9,29.97,WNW,298,4.0,5.0,255,0.00,,,0.00,Wunderground v.1.13,2013-03-02 03:30:00,
2013-03-01 22:36:00,59.0,-99.9,29.97,WNW,291,4.0,4.0,255,0.00,,,0.00,Wunderground v.1.13,2013-03-02 03:36:00,
2013-03-01 22:46:00,59.0,-99.9,29.97,West,275,4.0,5.0,255,0.00,,,0.00,Wunderground v.1.13,2013-03-02 03:46:00,
2013-03-01 23:01:00,58.9,-99.9,29.97,WNW,290,3.0,5.0,255,0.00,,,0.00,Wunderground v.1.13,2013-03-02 04:01:00,
2013-03-01 23:20:00,58.6,-99.9,29.95,West,279,3.0,3.0,255,0.00,,,0.00,Wunderground v.1.13,2013-03-02 04:20:00,
2013-03-01 23:26:00,58.6,-99.9,29.95,West,281,3.0,4.0,255,0.00,,,0.00,Wunderground v.1.13,2013-03-02 04:26:00,
2013-03-01 23:36:00,58.4,-99.9,29.95,NW,304,3.0,7.0,255,0.00,,,0.00,Wunderground v.1.13,2013-03-02 04:36:00,
2013-03-01 23:46:00,58.3,-99.9,29.95,NW,304,4.0,4.0,255,0.00,,,0.00,Wunderground v.1.13,2013-03-02 04:46:00,